Year,Month,Day,Hour,Minute,Value (Times are PST for temperature in C)
2008,08,22,00,00,12.30
2008,08,22,00,01,12.30
2008,08,22,00,02,12.30
2008,08,22,00,03,12.30
2008,08,22,00,04,12.30
2008,08,22,00,05,12.40
2008,08,22,00,06,12.40
2008,08,22,00,07,12.60
2008,08,22,00,08,12.70
2008,08,22,00,09,12.70
2008,08,22,00,10,12.80
2008,08,22,00,11,12.90
2008,08,22,00,12,12.90
2008,08,22,00,13,12.90
2008,08,22,00,14,13.00
2008,08,22,00,15,13.00
2008,08,22,00,16,13.10
2008,08,22,00,17,13.10
2008,08,22,00,18,13.10
2008,08,22,00,19,13.20
2008,08,22,00,20,13.20
2008,08,22,00,21,13.20
2008,08,22,00,22,13.20
2008,08,22,00,23,13.20
2008,08,22,00,24,13.20
2008,08,22,00,25,13.20
2008,08,22,00,26,13.20
2008,08,22,00,27,13.20
2008,08,22,00,28,13.20
2008,08,22,00,29,13.30
2008,08,22,00,30,13.30
2008,08,22,00,31,13.30
2008,08,22,00,32,13.40
2008,08,22,00,33,13.40
2008,08,22,00,34,13.40
2008,08,22,00,35,13.40
2008,08,22,00,36,13.50
2008,08,22,00,37,13.60
2008,08,22,00,38,13.60
2008,08,22,00,39,13.70
2008,08,22,00,40,13.70
2008,08,22,00,41,13.70
2008,08,22,00,42,13.70
2008,08,22,00,43,13.80
2008,08,22,00,44,13.80
2008,08,22,00,45,13.80
2008,08,22,00,46,13.90
2008,08,22,00,47,13.90
2008,08,22,00,48,13.90
2008,08,22,00,49,14.00
2008,08,22,00,50,14.00
2008,08,22,00,51,14.10
2008,08,22,00,52,14.10
2008,08,22,00,53,14.10
2008,08,22,00,54,14.10
2008,08,22,00,55,14.10
2008,08,22,00,56,14.10
2008,08,22,00,57,14.10
2008,08,22,00,58,14.10
2008,08,22,00,59,14.10
2008,08,22,01,00,14.10
2008,08,22,01,01,14.10
2008,08,22,01,02,14.10
2008,08,22,01,03,14.20
2008,08,22,01,04,14.20
2008,08,22,01,05,14.20
2008,08,22,01,06,14.20
2008,08,22,01,07,14.20
2008,08,22,01,08,14.20
2008,08,22,01,09,14.20
2008,08,22,01,10,14.20
2008,08,22,01,11,14.10
2008,08,22,01,12,14.10
2008,08,22,01,13,14.10
2008,08,22,01,14,14.10
2008,08,22,01,15,14.00
2008,08,22,01,16,14.00
2008,08,22,01,17,13.90
2008,08,22,01,18,13.90
2008,08,22,01,19,13.90
2008,08,22,01,20,13.90
2008,08,22,01,21,13.80
2008,08,22,01,22,13.80
2008,08,22,01,23,13.70
2008,08,22,01,24,13.70
2008,08,22,01,25,13.60
2008,08,22,01,26,13.60
2008,08,22,01,27,13.60
2008,08,22,01,28,13.60
2008,08,22,01,29,13.50
2008,08,22,01,30,13.50
2008,08,22,01,31,13.50
2008,08,22,01,32,13.40
2008,08,22,01,33,13.40
2008,08,22,01,34,13.40
2008,08,22,01,35,13.30
2008,08,22,01,36,13.30
2008,08,22,01,37,13.30
2008,08,22,01,38,13.20
2008,08,22,01,39,13.20
2008,08,22,01,40,13.20
2008,08,22,01,41,13.10
2008,08,22,01,42,13.10
2008,08,22,01,43,13.00
2008,08,22,01,44,13.00
2008,08,22,01,45,12.90
2008,08,22,01,46,12.90
2008,08,22,01,47,12.90
2008,08,22,01,48,12.80
2008,08,22,01,49,12.80
2008,08,22,01,50,12.80
2008,08,22,01,51,12.70
2008,08,22,01,52,12.70
2008,08,22,01,53,12.70
2008,08,22,01,54,12.70
2008,08,22,01,55,12.60
2008,08,22,01,56,12.60
2008,08,22,01,57,12.60
2008,08,22,01,58,12.50
2008,08,22,01,59,12.50
2008,08,22,02,00,12.40
2008,08,22,02,01,12.40
2008,08,22,02,02,12.40
2008,08,22,02,03,12.40
2008,08,22,02,04,12.30
2008,08,22,02,05,12.30
2008,08,22,02,06,12.30
2008,08,22,02,07,12.30
2008,08,22,02,08,12.30
2008,08,22,02,09,12.20
2008,08,22,02,10,12.20
2008,08,22,02,11,12.20
2008,08,22,02,12,12.20
2008,08,22,02,13,12.10
2008,08,22,02,14,12.10
2008,08,22,02,15,12.10
2008,08,22,02,16,12.00
2008,08,22,02,17,12.00
2008,08,22,02,18,12.00
2008,08,22,02,19,11.90
2008,08,22,02,20,11.90
2008,08,22,02,21,11.90
2008,08,22,02,22,11.90
2008,08,22,02,23,11.80
2008,08,22,02,24,11.80
2008,08,22,02,25,11.80
2008,08,22,02,26,11.80
2008,08,22,02,27,11.80
2008,08,22,02,28,11.80
2008,08,22,02,29,11.70
2008,08,22,02,30,11.70
2008,08,22,02,31,11.70
2008,08,22,02,32,11.70
2008,08,22,02,33,11.70
2008,08,22,02,34,11.70
2008,08,22,02,35,11.60
2008,08,22,02,36,11.60
2008,08,22,02,37,11.60
2008,08,22,02,38,11.60
2008,08,22,02,39,11.50
2008,08,22,02,40,11.50
2008,08,22,02,41,11.40
2008,08,22,02,42,11.40
2008,08,22,02,43,11.40
2008,08,22,02,44,11.30
2008,08,22,02,45,11.30
2008,08,22,02,46,11.30
2008,08,22,02,47,11.30
2008,08,22,02,48,11.20
2008,08,22,02,49,11.20
2008,08,22,02,50,11.20
2008,08,22,02,51,11.20
2008,08,22,02,52,11.10
2008,08,22,02,53,11.10
2008,08,22,02,54,11.10
2008,08,22,02,55,11.10
2008,08,22,02,56,11.00
2008,08,22,02,57,11.00
2008,08,22,02,58,10.90
2008,08,22,02,59,10.90
2008,08,22,03,00,10.90
2008,08,22,03,01,10.90
2008,08,22,03,02,10.80
2008,08,22,03,03,10.80
2008,08,22,03,04,10.80
2008,08,22,03,05,10.80
2008,08,22,03,06,10.80
2008,08,22,03,07,10.80
2008,08,22,03,08,10.70
2008,08,22,03,09,10.70
2008,08,22,03,10,10.70
2008,08,22,03,11,10.70
2008,08,22,03,12,10.70
2008,08,22,03,13,10.70
2008,08,22,03,14,10.70
2008,08,22,03,15,10.70
2008,08,22,03,16,10.70
2008,08,22,03,17,10.70
2008,08,22,03,18,10.70
2008,08,22,03,19,10.60
2008,08,22,03,20,10.60
2008,08,22,03,21,10.60
2008,08,22,03,22,10.60
2008,08,22,03,23,10.60
2008,08,22,03,24,10.60
2008,08,22,03,25,10.60
2008,08,22,03,26,10.60
2008,08,22,03,27,10.60
2008,08,22,03,28,10.60
2008,08,22,03,29,10.60
2008,08,22,03,30,10.60
2008,08,22,03,31,10.60
2008,08,22,03,32,10.60
2008,08,22,03,33,10.60
2008,08,22,03,34,10.60
2008,08,22,03,35,10.60
2008,08,22,03,36,10.60
2008,08,22,03,37,10.60
2008,08,22,03,38,10.60
2008,08,22,03,39,10.60
2008,08,22,03,40,10.60
2008,08,22,03,41,10.60
2008,08,22,03,42,10.60
2008,08,22,03,43,10.60
2008,08,22,03,44,10.60
2008,08,22,03,45,10.60
2008,08,22,03,46,10.60
2008,08,22,03,47,10.60
2008,08,22,03,48,10.60
2008,08,22,03,49,10.60
2008,08,22,03,50,10.60
2008,08,22,03,51,10.60
2008,08,22,03,52,10.60
2008,08,22,03,53,10.60
2008,08,22,03,54,10.60
2008,08,22,03,55,10.60
2008,08,22,03,56,10.60
2008,08,22,03,57,10.60
2008,08,22,03,58,10.60
2008,08,22,03,59,10.60
2008,08,22,04,00,10.60
2008,08,22,04,01,10.60
2008,08,22,04,02,10.60
2008,08,22,04,03,10.60
2008,08,22,04,04,10.60
2008,08,22,04,05,10.60
2008,08,22,04,06,10.60
2008,08,22,04,07,10.60
2008,08,22,04,08,10.60
2008,08,22,04,09,10.60
2008,08,22,04,10,10.60
2008,08,22,04,11,10.60
2008,08,22,04,12,10.60
2008,08,22,04,13,10.60
2008,08,22,04,14,10.60
2008,08,22,04,15,10.60
2008,08,22,04,16,10.60
2008,08,22,04,17,10.60
2008,08,22,04,18,10.60
2008,08,22,04,19,10.60
2008,08,22,04,20,10.60
2008,08,22,04,21,10.60
2008,08,22,04,22,10.60
2008,08,22,04,23,10.60
2008,08,22,04,24,10.60
2008,08,22,04,25,10.60
2008,08,22,04,26,10.60
2008,08,22,04,27,10.60
2008,08,22,04,28,10.60
2008,08,22,04,29,10.60
2008,08,22,04,30,10.60
2008,08,22,04,31,10.60
2008,08,22,04,32,10.60
2008,08,22,04,33,10.60
2008,08,22,04,34,10.60
2008,08,22,04,35,10.60
2008,08,22,04,36,10.60
2008,08,22,04,37,10.60
2008,08,22,04,38,10.60
2008,08,22,04,39,10.60
2008,08,22,04,40,10.60
2008,08,22,04,41,10.60
2008,08,22,04,42,10.60
2008,08,22,04,43,10.60
2008,08,22,04,44,10.60
2008,08,22,04,45,10.60
2008,08,22,04,46,10.60
2008,08,22,04,47,10.70
2008,08,22,04,48,10.60
2008,08,22,04,49,10.60
2008,08,22,04,50,10.60
2008,08,22,04,51,10.60
2008,08,22,04,52,10.60
2008,08,22,04,53,10.60
2008,08,22,04,54,10.60
2008,08,22,04,55,10.60
2008,08,22,04,56,10.60
2008,08,22,04,57,10.60
2008,08,22,04,58,10.60
2008,08,22,04,59,10.60
2008,08,22,05,00,10.60
2008,08,22,05,01,10.60
2008,08,22,05,02,10.60
2008,08,22,05,03,10.60
2008,08,22,05,04,10.60
2008,08,22,05,05,10.60
2008,08,22,05,06,10.60
2008,08,22,05,07,10.60
2008,08,22,05,08,10.60
2008,08,22,05,09,10.60
2008,08,22,05,10,10.60
2008,08,22,05,11,10.60
2008,08,22,05,12,10.60
2008,08,22,05,13,10.60
2008,08,22,05,14,10.60
2008,08,22,05,15,10.60
2008,08,22,05,16,10.60
2008,08,22,05,17,10.60
2008,08,22,05,18,10.60
2008,08,22,05,19,10.60
2008,08,22,05,20,10.60
2008,08,22,05,21,10.60
2008,08,22,05,22,10.60
2008,08,22,05,23,10.60
2008,08,22,05,24,10.60
2008,08,22,05,25,10.60
2008,08,22,05,26,10.60
2008,08,22,05,27,10.60
2008,08,22,05,28,10.60
2008,08,22,05,29,10.60
2008,08,22,05,30,10.60
2008,08,22,05,31,10.60
2008,08,22,05,32,10.60
2008,08,22,05,33,10.60
2008,08,22,05,34,10.60
2008,08,22,05,35,10.60
2008,08,22,05,36,10.60
2008,08,22,05,37,10.60
2008,08,22,05,38,10.60
2008,08,22,05,39,10.60
2008,08,22,05,40,10.60
2008,08,22,05,41,10.60
2008,08,22,05,42,10.60
2008,08,22,05,43,10.60
2008,08,22,05,44,10.60
2008,08,22,05,45,10.60
2008,08,22,05,46,10.60
2008,08,22,05,47,10.60
2008,08,22,05,48,10.60
2008,08,22,05,49,10.70
2008,08,22,05,50,10.70
2008,08,22,05,51,10.70
2008,08,22,05,52,10.70
2008,08,22,05,53,10.70
2008,08,22,05,54,10.70
2008,08,22,05,55,10.70
2008,08,22,05,56,10.70
2008,08,22,05,57,10.70
2008,08,22,05,58,10.70
2008,08,22,05,59,10.70
2008,08,22,06,00,10.70
2008,08,22,06,01,10.70
2008,08,22,06,02,10.70
2008,08,22,06,03,10.70
2008,08,22,06,04,10.70
2008,08,22,06,05,10.70
2008,08,22,06,06,10.70
2008,08,22,06,07,10.70
2008,08,22,06,08,10.70
2008,08,22,06,09,10.70
2008,08,22,06,10,10.70
2008,08,22,06,11,10.70
2008,08,22,06,12,10.70
2008,08,22,06,13,10.70
2008,08,22,06,14,10.70
2008,08,22,06,15,10.70
2008,08,22,06,16,10.70
2008,08,22,06,17,10.70
2008,08,22,06,18,10.70
2008,08,22,06,19,10.70
2008,08,22,06,20,10.70
2008,08,22,06,21,10.70
2008,08,22,06,22,10.70
2008,08,22,06,23,10.70
2008,08,22,06,24,10.80
2008,08,22,06,25,10.80
2008,08,22,06,26,10.80
2008,08,22,06,27,10.80
2008,08,22,06,28,10.80
2008,08,22,06,29,10.80
2008,08,22,06,30,10.80
2008,08,22,06,31,10.80
2008,08,22,06,32,10.80
2008,08,22,06,33,10.80
2008,08,22,06,34,10.80
2008,08,22,06,35,10.80
2008,08,22,06,36,10.80
2008,08,22,06,37,10.80
2008,08,22,06,38,10.80
2008,08,22,06,39,10.80
2008,08,22,06,40,10.80
2008,08,22,06,41,10.80
2008,08,22,06,42,10.80
2008,08,22,06,43,10.80
2008,08,22,06,44,10.80
2008,08,22,06,45,10.80
2008,08,22,06,46,10.80
2008,08,22,06,47,10.80
2008,08,22,06,48,10.80
2008,08,22,06,49,10.80
2008,08,22,06,50,10.90
2008,08,22,06,51,10.90
2008,08,22,06,52,10.90
2008,08,22,06,53,10.90
2008,08,22,06,54,11.00
2008,08,22,06,55,11.00
2008,08,22,06,56,11.00
2008,08,22,06,57,11.10
2008,08,22,06,58,11.10
2008,08,22,06,59,11.10
2008,08,22,07,00,11.10
2008,08,22,07,01,11.10
2008,08,22,07,02,11.10
2008,08,22,07,03,11.20
2008,08,22,07,04,11.20
2008,08,22,07,05,11.20
2008,08,22,07,06,11.20
2008,08,22,07,07,11.20
2008,08,22,07,08,11.20
2008,08,22,07,09,11.20
2008,08,22,07,10,11.20
2008,08,22,07,11,11.30
2008,08,22,07,12,11.30
2008,08,22,07,13,11.30
2008,08,22,07,14,11.30
2008,08,22,07,15,11.30
2008,08,22,07,16,11.30
2008,08,22,07,17,11.30
2008,08,22,07,18,11.40
2008,08,22,07,19,11.40
2008,08,22,07,20,11.40
2008,08,22,07,21,11.50
2008,08,22,07,22,11.50
2008,08,22,07,23,11.60
2008,08,22,07,24,11.60
2008,08,22,07,25,11.60
2008,08,22,07,26,11.60
2008,08,22,07,27,11.70
2008,08,22,07,28,11.70
2008,08,22,07,29,11.70
2008,08,22,07,30,11.80
2008,08,22,07,31,11.80
2008,08,22,07,32,11.80
2008,08,22,07,33,11.80
2008,08,22,07,34,11.80
2008,08,22,07,35,11.90
2008,08,22,07,36,11.90
2008,08,22,07,37,11.90
2008,08,22,07,38,11.90
2008,08,22,07,39,12.00
2008,08,22,07,40,12.00
2008,08,22,07,41,12.00
2008,08,22,07,42,12.00
2008,08,22,07,43,12.10
2008,08,22,07,44,12.10
2008,08,22,07,45,12.10
2008,08,22,07,46,12.10
2008,08,22,07,47,12.10
2008,08,22,07,48,12.10
2008,08,22,07,49,12.10
2008,08,22,07,50,12.10
2008,08,22,07,51,12.20
2008,08,22,07,52,12.20
2008,08,22,07,53,12.20
2008,08,22,07,54,12.20
2008,08,22,07,55,12.20
2008,08,22,07,56,12.30
2008,08,22,07,57,12.30
2008,08,22,07,58,12.30
2008,08,22,07,59,12.30
2008,08,22,08,00,12.40
2008,08,22,08,01,12.40
2008,08,22,08,02,12.40
2008,08,22,08,03,12.50
2008,08,22,08,04,12.50
2008,08,22,08,05,12.50
2008,08,22,08,06,12.60
2008,08,22,08,07,12.60
2008,08,22,08,08,12.70
2008,08,22,08,09,12.70
2008,08,22,08,10,12.70
2008,08,22,08,11,12.80
2008,08,22,08,12,12.80
2008,08,22,08,13,12.80
2008,08,22,08,14,12.90
2008,08,22,08,15,12.90
2008,08,22,08,16,13.00
2008,08,22,08,17,13.10
2008,08,22,08,18,13.20
2008,08,22,08,19,13.20
2008,08,22,08,20,13.30
2008,08,22,08,21,13.40
2008,08,22,08,22,13.40
2008,08,22,08,23,13.50
2008,08,22,08,24,13.50
2008,08,22,08,25,13.60
2008,08,22,08,26,13.60
2008,08,22,08,27,13.70
2008,08,22,08,28,13.80
2008,08,22,08,29,13.90
2008,08,22,08,30,14.10
2008,08,22,08,31,14.20
2008,08,22,08,32,14.20
2008,08,22,08,33,14.30
2008,08,22,08,34,14.30
2008,08,22,08,35,14.40
2008,08,22,08,36,14.50
2008,08,22,08,37,14.60
2008,08,22,08,38,14.70
2008,08,22,08,39,14.90
2008,08,22,08,40,15.00
2008,08,22,08,41,15.00
2008,08,22,08,42,15.00
2008,08,22,08,43,15.00
2008,08,22,08,44,15.00
2008,08,22,08,45,15.00
2008,08,22,08,46,15.00
2008,08,22,08,47,15.00
2008,08,22,08,48,15.00
2008,08,22,08,49,15.00
2008,08,22,08,50,15.00
2008,08,22,08,51,15.00
2008,08,22,08,52,15.00
2008,08,22,08,53,15.00
2008,08,22,08,54,15.00
2008,08,22,08,55,15.00
2008,08,22,08,56,15.00
2008,08,22,08,57,15.00
2008,08,22,08,58,15.00
2008,08,22,08,59,15.00
2008,08,22,09,00,15.10
2008,08,22,09,01,15.20
2008,08,22,09,02,15.30
2008,08,22,09,03,15.40
2008,08,22,09,04,15.50
2008,08,22,09,05,15.60
2008,08,22,09,06,15.60
2008,08,22,09,07,15.60
2008,08,22,09,08,15.70
2008,08,22,09,09,15.70
2008,08,22,09,10,15.70
2008,08,22,09,11,15.70
2008,08,22,09,12,15.70
2008,08,22,09,13,15.80
2008,08,22,09,14,15.80
2008,08,22,09,15,15.90
2008,08,22,09,16,16.00
2008,08,22,09,17,16.00
2008,08,22,09,18,16.10
2008,08,22,09,19,16.10
2008,08,22,09,20,16.10
2008,08,22,09,21,16.10
2008,08,22,09,22,16.10
2008,08,22,09,23,16.10
2008,08,22,09,24,16.00
2008,08,22,09,25,16.00
2008,08,22,09,26,16.10
2008,08,22,09,27,16.10
2008,08,22,09,28,16.20
2008,08,22,09,29,16.20
2008,08,22,09,30,16.20
2008,08,22,09,31,16.30
2008,08,22,09,32,16.30
2008,08,22,09,33,16.30
2008,08,22,09,34,16.30
2008,08,22,09,35,16.30
2008,08,22,09,36,16.30
2008,08,22,09,37,16.30
2008,08,22,09,38,16.30
2008,08,22,09,39,16.30
2008,08,22,09,40,16.30
2008,08,22,09,41,16.20
2008,08,22,09,42,16.30
2008,08,22,09,43,16.40
2008,08,22,09,44,16.50
2008,08,22,09,45,16.50
2008,08,22,09,46,16.60
2008,08,22,09,47,16.60
2008,08,22,09,48,16.60
2008,08,22,09,49,16.60
2008,08,22,09,50,16.70
2008,08,22,09,51,16.70
2008,08,22,09,52,16.70
2008,08,22,09,53,16.70
2008,08,22,09,54,16.70
2008,08,22,09,55,16.70
2008,08,22,09,56,16.70
2008,08,22,09,57,16.70
2008,08,22,09,58,16.60
2008,08,22,09,59,16.60
2008,08,22,10,00,16.60
2008,08,22,10,01,16.60
2008,08,22,10,02,16.60
2008,08,22,10,03,16.70
2008,08,22,10,04,16.70
2008,08,22,10,05,16.80
2008,08,22,10,06,16.90
2008,08,22,10,07,16.90
2008,08,22,10,08,16.80
2008,08,22,10,09,16.70
2008,08,22,10,10,16.60
2008,08,22,10,11,16.50
2008,08,22,10,12,16.40
2008,08,22,10,13,16.40
2008,08,22,10,14,16.30
2008,08,22,10,15,16.30
2008,08,22,10,16,16.30
2008,08,22,10,17,16.30
2008,08,22,10,18,16.30
2008,08,22,10,19,16.30
2008,08,22,10,20,16.40
2008,08,22,10,21,16.40
2008,08,22,10,22,16.40
2008,08,22,10,23,16.50
2008,08,22,10,24,16.50
2008,08,22,10,25,16.50
2008,08,22,10,26,16.60
2008,08,22,10,27,16.60
2008,08,22,10,28,16.70
2008,08,22,10,29,16.70
2008,08,22,10,30,16.80
2008,08,22,10,31,16.80
2008,08,22,10,32,16.80
2008,08,22,10,33,16.80
2008,08,22,10,34,16.90
2008,08,22,10,35,16.90
2008,08,22,10,36,16.90
2008,08,22,10,37,16.90
2008,08,22,10,38,16.80
2008,08,22,10,39,16.80
2008,08,22,10,40,16.80
2008,08,22,10,41,16.80
2008,08,22,10,42,16.80
2008,08,22,10,43,16.80
2008,08,22,10,44,16.80
2008,08,22,10,45,16.80
2008,08,22,10,46,16.90
2008,08,22,10,47,16.90
2008,08,22,10,48,16.90
2008,08,22,10,49,17.00
2008,08,22,10,50,17.00
2008,08,22,10,51,17.00
2008,08,22,10,52,16.90
2008,08,22,10,53,16.80
2008,08,22,10,54,16.60
2008,08,22,10,55,16.50
2008,08,22,10,56,16.40
2008,08,22,10,57,16.30
2008,08,22,10,58,16.30
2008,08,22,10,59,16.30
2008,08,22,11,00,16.40
2008,08,22,11,01,16.40
2008,08,22,11,02,16.50
2008,08,22,11,03,16.50
2008,08,22,11,04,16.60
2008,08,22,11,05,16.70
2008,08,22,11,06,16.70
2008,08,22,11,07,16.70
2008,08,22,11,08,16.80
2008,08,22,11,09,16.80
2008,08,22,11,10,16.80
2008,08,22,11,11,16.90
2008,08,22,11,12,17.00
2008,08,22,11,13,17.10
2008,08,22,11,14,17.10
2008,08,22,11,15,17.20
2008,08,22,11,16,17.10
2008,08,22,11,17,17.10
2008,08,22,11,18,17.10
2008,08,22,11,19,17.00
2008,08,22,11,20,17.00
2008,08,22,11,21,17.00
2008,08,22,11,22,17.00
2008,08,22,11,23,16.90
2008,08,22,11,24,16.80
2008,08,22,11,25,16.70
2008,08,22,11,26,16.70
2008,08,22,11,27,16.80
2008,08,22,11,28,16.80
2008,08,22,11,29,16.90
2008,08,22,11,30,17.00
2008,08,22,11,31,17.00
2008,08,22,11,32,17.10
2008,08,22,11,33,17.00
2008,08,22,11,34,17.00
2008,08,22,11,35,16.90
2008,08,22,11,36,16.90
2008,08,22,11,37,16.90
2008,08,22,11,38,16.80
2008,08,22,11,39,16.90
2008,08,22,11,40,16.90
2008,08,22,11,41,17.00
2008,08,22,11,42,17.00
2008,08,22,11,43,17.10
2008,08,22,11,44,17.30
2008,08,22,11,45,17.40
2008,08,22,11,46,17.50
2008,08,22,11,47,17.60
2008,08,22,11,48,17.70
2008,08,22,11,49,17.90
2008,08,22,11,50,18.00
2008,08,22,11,51,18.10
2008,08,22,11,52,18.20
2008,08,22,11,53,18.30
2008,08,22,11,54,18.40
2008,08,22,11,55,18.50
2008,08,22,11,56,18.50
2008,08,22,11,57,18.50
2008,08,22,11,58,18.50
2008,08,22,11,59,18.50
2008,08,22,12,00,18.40
2008,08,22,12,01,18.50
2008,08,22,12,02,18.50
2008,08,22,12,03,18.60
2008,08,22,12,04,18.70
2008,08,22,12,05,18.70
2008,08,22,12,06,18.80
2008,08,22,12,07,18.90
2008,08,22,12,08,19.10
2008,08,22,12,09,19.10
2008,08,22,12,10,19.10
2008,08,22,12,11,19.10
2008,08,22,12,12,19.10
2008,08,22,12,13,19.20
2008,08,22,12,14,19.30
2008,08,22,12,15,19.30
2008,08,22,12,16,19.30
2008,08,22,12,17,19.30
2008,08,22,12,18,19.30
2008,08,22,12,19,19.40
2008,08,22,12,20,19.40
2008,08,22,12,21,19.40
2008,08,22,12,22,19.30
2008,08,22,12,23,19.30
2008,08,22,12,24,19.30
2008,08,22,12,25,19.30
2008,08,22,12,26,19.40
2008,08,22,12,27,19.60
2008,08,22,12,28,19.50
2008,08,22,12,29,19.50
2008,08,22,12,30,19.40
2008,08,22,12,31,19.50
2008,08,22,12,32,19.60
2008,08,22,12,33,19.60
2008,08,22,12,34,19.60
2008,08,22,12,35,19.70
2008,08,22,12,36,19.70
2008,08,22,12,37,19.70
2008,08,22,12,38,19.60
2008,08,22,12,39,19.60
2008,08,22,12,40,19.50
2008,08,22,12,41,19.40
2008,08,22,12,42,19.30
2008,08,22,12,43,19.20
2008,08,22,12,44,19.20
2008,08,22,12,45,19.20
2008,08,22,12,46,19.20
2008,08,22,12,47,19.30
2008,08,22,12,48,19.30
2008,08,22,12,49,19.40
2008,08,22,12,50,19.50
2008,08,22,12,51,19.70
2008,08,22,12,52,19.70
2008,08,22,12,53,19.80
2008,08,22,12,54,19.80
2008,08,22,12,55,19.70
2008,08,22,12,56,19.70
2008,08,22,12,57,19.70
2008,08,22,12,58,19.60
2008,08,22,12,59,19.70
2008,08,22,13,00,19.70
2008,08,22,13,01,19.60
2008,08,22,13,02,19.50
2008,08,22,13,03,19.40
2008,08,22,13,04,19.30
2008,08,22,13,05,19.30
2008,08,22,13,06,19.20
2008,08,22,13,07,19.30
2008,08,22,13,08,19.30
2008,08,22,13,09,19.40
2008,08,22,13,10,19.40
2008,08,22,13,11,19.50
2008,08,22,13,12,19.50
2008,08,22,13,13,19.50
2008,08,22,13,14,19.50
2008,08,22,13,15,19.50
2008,08,22,13,16,19.40
2008,08,22,13,17,19.40
2008,08,22,13,18,19.30
2008,08,22,13,19,19.30
2008,08,22,13,20,19.20
2008,08,22,13,21,19.20
2008,08,22,13,22,19.20
2008,08,22,13,23,19.20
2008,08,22,13,24,19.10
2008,08,22,13,25,19.10
2008,08,22,13,26,18.90
2008,08,22,13,27,18.80
2008,08,22,13,28,18.80
2008,08,22,13,29,18.80
2008,08,22,13,30,18.80
2008,08,22,13,31,18.70
2008,08,22,13,32,18.70
2008,08,22,13,33,18.60
2008,08,22,13,34,18.60
2008,08,22,13,35,18.60
2008,08,22,13,36,18.60
2008,08,22,13,37,18.70
2008,08,22,13,38,18.80
2008,08,22,13,39,18.80
2008,08,22,13,40,18.90
2008,08,22,13,41,18.90
2008,08,22,13,42,19.00
2008,08,22,13,43,19.00
2008,08,22,13,44,19.10
2008,08,22,13,45,19.20
2008,08,22,13,46,19.30
2008,08,22,13,47,19.30
2008,08,22,13,48,19.40
2008,08,22,13,49,19.40
2008,08,22,13,50,19.40
2008,08,22,13,51,19.50
2008,08,22,13,52,19.50
2008,08,22,13,53,19.60
2008,08,22,13,54,19.60
2008,08,22,13,55,19.70
2008,08,22,13,56,19.60
2008,08,22,13,57,19.60
2008,08,22,13,58,19.70
2008,08,22,13,59,19.80
2008,08,22,14,00,19.80
2008,08,22,14,01,19.90
2008,08,22,14,02,19.90
2008,08,22,14,03,20.00
2008,08,22,14,04,19.90
2008,08,22,14,05,19.90
2008,08,22,14,06,19.80
2008,08,22,14,07,19.90
2008,08,22,14,08,19.90
2008,08,22,14,09,19.90
2008,08,22,14,10,20.00
2008,08,22,14,11,20.00
2008,08,22,14,12,20.00
2008,08,22,14,13,20.00
2008,08,22,14,14,19.80
2008,08,22,14,15,19.70
2008,08,22,14,16,19.60
2008,08,22,14,17,19.60
2008,08,22,14,18,19.60
2008,08,22,14,19,19.60
2008,08,22,14,20,19.50
2008,08,22,14,21,19.50
2008,08,22,14,22,19.40
2008,08,22,14,23,19.40
2008,08,22,14,24,19.50
2008,08,22,14,25,19.50
2008,08,22,14,26,19.60
2008,08,22,14,27,19.60
2008,08,22,14,28,19.70
2008,08,22,14,29,19.80
2008,08,22,14,30,19.80
2008,08,22,14,31,19.80
2008,08,22,14,32,19.80
2008,08,22,14,33,19.80
2008,08,22,14,34,19.70
2008,08,22,14,35,19.70
2008,08,22,14,36,19.70
2008,08,22,14,37,19.80
2008,08,22,14,38,19.80
2008,08,22,14,39,19.90
2008,08,22,14,40,19.90
2008,08,22,14,41,19.90
2008,08,22,14,42,19.90
2008,08,22,14,43,20.00
2008,08,22,14,44,20.00
2008,08,22,14,45,20.10
2008,08,22,14,46,20.20
2008,08,22,14,47,20.30
2008,08,22,14,48,20.30
2008,08,22,14,49,20.20
2008,08,22,14,50,20.10
2008,08,22,14,51,20.10
2008,08,22,14,52,20.10
2008,08,22,14,53,20.10
2008,08,22,14,54,20.20
2008,08,22,14,55,20.10
2008,08,22,14,56,20.00
2008,08,22,14,57,19.90
2008,08,22,14,58,20.00
2008,08,22,14,59,20.00
2008,08,22,15,00,20.10
2008,08,22,15,01,20.20
2008,08,22,15,02,20.30
2008,08,22,15,03,20.40
2008,08,22,15,04,20.50
2008,08,22,15,05,20.50
2008,08,22,15,06,20.40
2008,08,22,15,07,20.40
2008,08,22,15,08,20.30
2008,08,22,15,09,20.30
2008,08,22,15,10,20.30
2008,08,22,15,11,20.30
2008,08,22,15,12,20.30
2008,08,22,15,13,20.20
2008,08,22,15,14,20.30
2008,08,22,15,15,20.30
2008,08,22,15,16,20.40
2008,08,22,15,17,20.40
2008,08,22,15,18,20.50
2008,08,22,15,19,20.50
2008,08,22,15,20,20.60
2008,08,22,15,21,20.60
2008,08,22,15,22,20.70
2008,08,22,15,23,20.70
2008,08,22,15,24,20.70
2008,08,22,15,25,20.70
2008,08,22,15,26,20.70
2008,08,22,15,27,20.80
2008,08,22,15,28,20.80
2008,08,22,15,29,20.80
2008,08,22,15,30,20.90
2008,08,22,15,31,20.90
2008,08,22,15,32,20.90
2008,08,22,15,33,20.90
2008,08,22,15,34,20.80
2008,08,22,15,35,20.70
2008,08,22,15,36,20.70
2008,08,22,15,37,20.80
2008,08,22,15,38,20.80
2008,08,22,15,39,20.90
2008,08,22,15,40,20.90
2008,08,22,15,41,20.90
2008,08,22,15,42,20.80
2008,08,22,15,43,20.80
2008,08,22,15,44,20.80
2008,08,22,15,45,20.80
2008,08,22,15,46,20.80
2008,08,22,15,47,20.70
2008,08,22,15,48,20.60
2008,08,22,15,49,20.50
2008,08,22,15,50,20.40
2008,08,22,15,51,20.40
2008,08,22,15,52,20.40
2008,08,22,15,53,20.40
2008,08,22,15,54,20.50
2008,08,22,15,55,20.50
2008,08,22,15,56,20.60
2008,08,22,15,57,20.60
2008,08,22,15,58,20.60
2008,08,22,15,59,20.60
2008,08,22,16,00,20.50
2008,08,22,16,01,20.50
2008,08,22,16,02,20.50
2008,08,22,16,03,20.50
2008,08,22,16,04,20.50
2008,08,22,16,05,20.50
2008,08,22,16,06,20.50
2008,08,22,16,07,20.50
2008,08,22,16,08,20.50
2008,08,22,16,09,20.50
2008,08,22,16,10,20.40
2008,08,22,16,11,20.40
2008,08,22,16,12,20.30
2008,08,22,16,13,20.30
2008,08,22,16,14,20.20
2008,08,22,16,15,20.20
2008,08,22,16,16,20.20
2008,08,22,16,17,20.20
2008,08,22,16,18,20.20
2008,08,22,16,19,20.20
2008,08,22,16,20,20.20
2008,08,22,16,21,20.20
2008,08,22,16,22,20.20
2008,08,22,16,23,20.20
2008,08,22,16,24,20.20
2008,08,22,16,25,20.20
2008,08,22,16,26,20.20
2008,08,22,16,27,20.20
2008,08,22,16,28,20.20
2008,08,22,16,29,20.10
2008,08,22,16,30,20.10
2008,08,22,16,31,20.10
2008,08,22,16,32,20.10
2008,08,22,16,33,20.10
2008,08,22,16,34,20.10
2008,08,22,16,35,20.10
2008,08,22,16,36,20.10
2008,08,22,16,37,20.10
2008,08,22,16,38,20.10
2008,08,22,16,39,20.10
2008,08,22,16,40,20.10
2008,08,22,16,41,20.00
2008,08,22,16,42,20.00
2008,08,22,16,43,20.00
2008,08,22,16,44,20.00
2008,08,22,16,45,19.90
2008,08,22,16,46,19.90
2008,08,22,16,47,19.90
2008,08,22,16,48,19.90
2008,08,22,16,49,19.90
2008,08,22,16,50,19.90
2008,08,22,16,51,19.80
2008,08,22,16,52,19.80
2008,08,22,16,53,19.80
2008,08,22,16,54,19.80
2008,08,22,16,55,19.80
2008,08,22,16,56,19.90
2008,08,22,16,57,19.80
2008,08,22,16,58,19.80
2008,08,22,16,59,19.90
2008,08,22,17,00,19.90
2008,08,22,17,01,19.90
2008,08,22,17,02,19.90
2008,08,22,17,03,19.90
2008,08,22,17,04,19.90
2008,08,22,17,05,19.90
2008,08,22,17,06,19.90
2008,08,22,17,07,20.00
2008,08,22,17,08,20.00
2008,08,22,17,09,19.90
2008,08,22,17,10,19.90
2008,08,22,17,11,19.80
2008,08,22,17,12,19.80
2008,08,22,17,13,19.80
2008,08,22,17,14,19.80
2008,08,22,17,15,19.80
2008,08,22,17,16,19.70
2008,08,22,17,17,19.70
2008,08,22,17,18,19.60
2008,08,22,17,19,19.60